Weather History for Grand Forks, ND

Change the Weather History Date:

Tuesday, November 4, 2014

  Actual Average Record
Temperature  
Mean Temperature 34 °F 33 °F  
Max Temperature 43 °F 43 °F 72 °F (1975)
Min Temperature 24 °F 24 °F -3 °F (1951)
Degree Days  
Heating Degree Days 31 32  
Month to date heating degree days 97 124  
Since 1 July heating degree days 920 1155  
Cooling Degree Days 0 0  
Month to date cooling degree days 0 0  
Year to date cooling degree days 395 379  
Moisture  
Dew Point 27 °F    
Average Humidity 69    
Maximum Humidity 88    
Minimum Humidity 49    
Precipitation  
Precipitation 0.00 in 0.04 in 0.45 in (2008)
Month to date precipitation 0.00 0.16  
Year to date precipitation 22.34 19.41  
Snow  
Snow 0.00 in 0.20 in 5.40 in (2003)
Month to date snowfall 0.0 0.6  
Since 1 July snowfall T 2.1  
Since 1 September snowfall T 2.1  
Snow Depth 0.00 in    
Sea Level Pressure  
Sea Level Pressure 29.91 in    
Wind  
Wind Speed 10 mph (WNW)    
Max Wind Speed 25 mph    
Max Gust Speed 32 mph    
Visibility 10 miles    
Events      
T = Trace of Precipitation, MM = Missing Value Source: NWS Daily Summary

Daily Weather History Graph

Daily Weather History Graph

Search for Another Location

Airport:

Trip Planner

Search our weather history database for the weather conditions in past years. The results will help you decide how hot, cold, wet, or windy it might be!

Date:

Astronomy

Nov. 04, 2014 Rise Set
Actual Time 7:18 AM CST 5:05 PM CST
Civil Twilight 6:45 AM CST 5:38 PM CST
Nautical Twilight 6:08 AM CST 6:15 PM CST
Astronomical Twilight 5:32 AM CST 6:51 PM CST
Moon 4:02 PM CST (11/4) 4:25 AM CST (11/4)
Length of Visible Light 10h 52m
Length of Day
9h 47m
Waxing Gibbous, 94% of the Moon is Illuminated
Nov 4
Waxing Gibbous
Nov 6
Full
Nov 14
Last Quarter
Nov 22
New
Nov 29
First Quarter

Hourly Weather History & Observations

Time (CST) Temp. Windchill Dew Point Humidity Pressure Visibility Wind Dir Wind Speed Gust Speed Precip Events Conditions
12:53 AM 42.1 °F 35.7 °F 28.9 °F 60% 29.85 in 10.0 mi WNW 11.5 mph - N/A   Overcast
1:53 AM 42.1 °F 33.1 °F 28.9 °F 60% 29.85 in 10.0 mi NW 20.7 mph 27.6 mph N/A   Overcast
2:53 AM 41.0 °F 35.2 °F 28.9 °F 62% 29.86 in 10.0 mi WNW 9.2 mph - N/A   Overcast
3:53 AM 41.0 °F 35.8 °F 28.9 °F 62% 29.85 in 10.0 mi WNW 8.1 mph - N/A   Overcast
4:53 AM 39.9 °F 33.9 °F 30.9 °F 70% 29.86 in 10.0 mi West 9.2 mph - N/A   Overcast
5:53 AM 39.0 °F 31.0 °F 30.9 °F 73% 29.86 in 10.0 mi WNW 13.8 mph - N/A   Overcast
6:53 AM 39.0 °F 32.3 °F 30.0 °F 70% 29.87 in 10.0 mi WNW 10.4 mph - N/A   Overcast
7:53 AM 39.0 °F 31.8 °F 30.0 °F 70% 29.88 in 10.0 mi WNW 11.5 mph - N/A   Overcast
8:53 AM 39.9 °F 31.8 °F 28.0 °F 63% 29.89 in 10.0 mi WNW 15.0 mph - N/A   Overcast
9:53 AM 39.9 °F 31.8 °F 28.0 °F 63% 29.91 in 10.0 mi NW 15.0 mph 24.2 mph N/A   Overcast
10:53 AM 39.9 °F 30.5 °F 28.0 °F 63% 29.91 in 10.0 mi WNW 19.6 mph 27.6 mph N/A   Overcast
11:53 AM 42.1 °F 33.9 °F 26.1 °F 53% 29.91 in 10.0 mi WNW 17.3 mph 29.9 mph N/A   Overcast
12:53 PM 42.1 °F 33.3 °F 25.0 °F 51% 29.91 in 10.0 mi NW 19.6 mph - N/A   Overcast
1:53 PM 42.1 °F 32.8 °F 26.1 °F 53% 29.90 in 10.0 mi WNW 21.9 mph 26.5 mph N/A   Overcast
2:53 PM 42.1 °F 34.2 °F 27.0 °F 55% 29.90 in 10.0 mi NW 16.1 mph 23.0 mph N/A   Overcast
3:53 PM 43.0 °F 35.4 °F 26.1 °F 51% 29.91 in 10.0 mi WNW 16.1 mph 23.0 mph N/A   Overcast
4:53 PM 39.9 °F 36.7 °F 28.0 °F 63% 29.93 in 10.0 mi NNW 4.6 mph 18.4 mph N/A   Overcast
5:53 PM 37.9 °F - 28.9 °F 70% 29.94 in 10.0 mi Calm Calm - N/A   Overcast
6:53 PM 36.0 °F - 28.9 °F 76% 29.95 in 10.0 mi Calm Calm - N/A   Overcast
7:53 PM 28.0 °F - 24.1 °F 85% 29.97 in 10.0 mi Calm Calm - N/A   Scattered Clouds
8:53 PM 26.1 °F - 21.9 °F 84% 29.99 in 10.0 mi Calm Calm - N/A   Scattered Clouds
9:53 PM 28.0 °F - 25.0 °F 88% 29.99 in 10.0 mi Calm Calm - N/A   Mostly Cloudy
10:53 PM 25.0 °F - 21.9 °F 88% 29.99 in 10.0 mi Calm Calm - N/A   Mostly Cloudy
11:53 PM 24.1 °F - 21.0 °F 88% 29.99 in 10.0 mi Calm Calm - N/A   Clear